{"data":{"norad_id":65700,"epoch":"2026-09-19T23:02:23.126496Z","epoch_age_seconds":155417,"freshness":"FRESH","line1":"1 65700U 25212AA  26262.95998989  .00007284  00000+0  22656-3 0  9998","line2":"2 65700  53.1584 158.5929 0001560  80.5254 279.5925 15.34394355 57004","mean_motion":15.34394355,"eccentricity":0.000156,"inclination_deg":53.1584,"raan_deg":158.5929,"arg_perigee_deg":80.5254,"mean_anomaly_deg":279.5925,"bstar":0.00022656,"rev_number":5700,"period_min":93.848103344984,"perigee_km":461.65284469331,"apogee_km":463.78719208304,"semimajor_km":6840.8570183882,"source":"CELESTRAK","updated_at":"2026-09-21T09:00:35.690154Z"}}